Content
SEND FEEDBACK

Daily
Averages
Monthly
Summary
United States of America

BARNESTON, NEBRASKA


Home > North America > United States > Nebraska
Elevation: 1200 feet     Latitude: 40 03N     Longitude: 096 35W

WEATHER
 
SELECT A DAY
Number of Records: 437,990;   Date Range: 7/27/95 - 11/22/14
 
SHARE

PRINT THIS DATA

[ ← Previous Day ]
WEATHER ALMANAC - JANUARY 23, 2013
[ Next Day → ]
[ °C ]   °F
Weather ElementAverageHighLow
Temperature23.8 °F36.7 °F (12:55 pm)12.2 °F (7:55 am)
Dewpoint12.3 °F19.9 °F (11:35 am)4.8 °F (11:55 pm)
Humidity62.5 %78 % (7:35 am)43 % (2:55 pm)
Barometer30.26 in30.46 in (11:35 pm)30.15 in (5:35 am)
Wind Speed8.1 mph19.6 mph (2:55 pm)
Wind Gust23 mph (2:15 pm)
Weather ElementAverage
Visibility10 mi
Wind DirectionENE (61.3 °)

Weather ElementTotal
Precipitation---
Heating Degree Days40.6 (Base 65)
Averaged from 69 records on January 23, 2013
WEATHER CONDITIONS BREAKOUT
WIND DIRECTION BREAKOUT
WEATHER BY HOUR - JANUARY 23, 2013
[ °C ]   °F
Local TimeTemperatureDewpointHumidityBarometerVisibilityWind DirectionWind SpeedGust SpeedPrecipitationEventsConditions
12:35 AM18.3 °F7.5 °F63 %30.21 in10.0 miSouth (170°)3.5 mphClear
12:55 AM18.0 °F7.5 °F64 %30.21 in10.0 miSouth (190°)5.8 mphClear
1:35 AM17.2 °F7.7 °F66 %30.19 in10.0 miCalmClear
1:55 AM16.9 °F7.7 °F67 %30.19 in10.0 miCalmClear
2:15 AM17.8 °F7.7 °F65 %30.21 in10.0 miCalmClear
2:35 AM17.6 °F7.7 °F65 %30.20 in10.0 miSouth (180°)3.5 mphClear
2:55 AM15.6 °F7.0 °F69 %30.20 in10.0 miCalmClear
3:36 AM17.6 °F8.6 °F68 %30.19 in10.0 miSouth (180°)4.6 mphClear
3:55 AM16.5 °F7.7 °F68 %30.19 in10.0 miSouth (190°)4.6 mphClear
4:15 AM16.3 °F8.4 °F71 %30.18 in10.0 miSouth (170°)4.6 mphClear
4:35 AM17.4 °F8.8 °F69 %30.17 in10.0 miSE (140°)3.5 mphClear
4:55 AM16.9 °F8.4 °F69 %30.16 in10.0 miCalmClear
5:15 AM16.3 °F7.9 °F69 %30.16 in10.0 miCalmClear
5:35 AM15.3 °F7.5 °F71 %30.15 in10.0 miCalmClear
5:55 AM14.5 °F7.9 °F75 %30.15 in10.0 miCalmClear
6:15 AM12.4 °F5.9 °F75 %30.16 in10.0 miCalmClear
6:35 AM12.9 °F6.1 °F74 %30.16 in10.0 miCalmClear
6:55 AM13.1 °F6.8 °F76 %30.16 in10.0 miCalmClear
7:15 AM13.8 °F7.3 °F75 %30.17 in10.0 miCalmClear
7:35 AM13.8 °F8.2 °F78 %30.17 in10.0 miCalmClear
7:55 AM12.2 °F5.7 °F75 %30.18 in10.0 miCalmClear
8:15 AM12.6 °F6.8 °F78 %30.17 in10.0 miCalmClear
8:35 AM16.5 °F10.8 °F78 %30.18 in10.0 miCalmClear
8:55 AM19.4 °F11.5 °F71 %30.19 in10.0 miCalmClear
9:15 AM21.4 °F12.9 °F70 %30.19 in10.0 miWest (270°)3.5 mphClear
9:35 AM23.5 °F13.8 °F66 %30.20 in10.0 miWNW (290°)3.5 mphClear
9:55 AM26.2 °F16.9 °F68 %30.20 in10.0 miNNW (330°)6.9 mphClear
10:15 AM28.8 °F18.5 °F66 %30.21 in10.0 miNNW (330°)5.8 mphClear
10:35 AM32.0 °F18.9 °F58 %30.22 in10.0 miNNE (20°)10.4 mphClear
10:55 AM32.9 °F19.2 °F57 %30.23 in10.0 miNNE (30°)12.7 mphClear
11:15 AM32.7 °F19.8 °F59 %30.23 in10.0 miNorth (10°)11.5 mphClear
11:35 AM33.3 °F19.9 °F58 %30.24 in10.0 miNNE (20°)11.5 mph16.1 mphClear
11:55 AM33.3 °F18.7 °F55 %30.24 in10.0 miNNE (20°)9.2 mphClear
12:15 PM34.9 °F19.2 °F53 %30.23 in10.0 miNorth (10°)11.5 mphClear
12:35 PM36.3 °F18.9 °F49 %30.23 in10.0 miNNE (30°)11.5 mph17.3 mphClear
12:55 PM36.7 °F19.2 °F49 %30.23 in10.0 miNorth (360°)13.8 mph17.3 mphClear
1:15 PM36.5 °F18.5 °F48 %30.23 in10.0 miNorth (10°)11.5 mph18.4 mphClear
1:35 PM36.7 °F18.0 °F47 %30.23 in10.0 miNorth (10°)15.0 mphClear
1:55 PM36.5 °F17.2 °F46 %30.23 in10.0 miNorth (10°)17.3 mph21.9 mphClear
2:15 PM35.8 °F16.3 °F45 %30.22 in10.0 miNNE (20°)16.1 mph23.0 mphClear
2:35 PM35.8 °F16.2 °F45 %30.23 in10.0 miNorth (10°)17.3 mph21.9 mphClear
2:55 PM36.3 °F15.8 °F43 %30.23 in10.0 miNNE (30°)19.6 mph23.0 mphClear
3:15 PM36.1 °F16.2 °F44 %30.24 in10.0 miNNE (30°)16.1 mphClear
3:35 PM35.6 °F15.3 °F43 %30.24 in10.0 miNNE (20°)16.1 mphClear
3:55 PM33.8 °F14.5 °F45 %30.26 in10.0 miNorth (10°)17.3 mph20.7 mphClear
4:15 PM32.4 °F14.7 °F48 %30.27 in10.0 miNorth (10°)15.0 mphClear
4:35 PM31.6 °F14.2 °F49 %30.29 in10.0 miNorth (10°)15.0 mphClear
4:55 PM30.7 °F14.7 °F52 %30.29 in10.0 miNNE (20°)15.0 mphClear
5:15 PM29.5 °F15.4 °F56 %30.30 in10.0 miNNE (20°)11.5 mphClear
5:35 PM28.6 °F15.8 °F59 %30.31 in10.0 miNorth (10°)11.5 mph16.1 mphClear
5:55 PM28.0 °F16.5 °F62 %30.32 in10.0 miNNE (20°)8.1 mphClear
6:15 PM27.3 °F16.7 °F64 %30.33 in10.0 miNorth (10°)8.1 mphClear
6:35 PM25.5 °F15.8 °F67 %30.34 in10.0 miNorth (360°)8.1 mphClear
6:55 PM24.6 °F16.7 °F72 %30.35 in10.0 miNorth (10°)8.1 mphClear
7:15 PM24.3 °F16.3 °F72 %30.36 in10.0 miNorth (360°)6.9 mphClear
7:35 PM24.1 °F16.5 °F73 %30.37 in10.0 miNNE (20°)6.9 mphClear
7:55 PM24.3 °F13.3 °F63 %30.39 in10.0 miNNE (20°)12.7 mph18.4 mphClear
8:15 PM23.4 °F12.2 °F62 %30.38 in10.0 miNNE (20°)11.5 mphClear
8:35 PM22.8 °F11.1 °F61 %30.40 in10.0 miNNE (20°)11.5 mphClear
8:55 PM22.1 °F10.4 °F61 %30.41 in10.0 miNNE (20°)15.0 mph21.9 mphClear
9:15 PM21.2 °F10.0 °F62 %30.41 in10.0 miNNE (20°)15.0 mphClear
9:35 PM20.3 °F10.2 °F65 %30.42 in10.0 miNNE (20°)11.5 mphClear
9:55 PM19.4 °F9.9 °F66 %30.42 in10.0 miNNE (20°)12.7 mphClear
10:15 PM19.2 °F9.5 °F66 %30.44 in10.0 miNorth (10°)12.7 mphClear
10:35 PM18.5 °F9.5 °F68 %30.44 in10.0 miNNE (20°)10.4 mphClear
10:55 PM18.1 °F9.1 °F68 %30.44 in10.0 miNNE (30°)10.4 mph16.1 mphClear
11:15 PM17.4 °F7.9 °F66 %30.44 in10.0 miNNE (30°)11.5 mph17.3 mphClear
11:35 PM17.6 °F5.0 °F58 %30.46 in10.0 miNNE (30°)11.5 mphClear
11:55 PM16.3 °F4.8 °F61 %30.45 in10.0 miNNE (30°)11.5 mphClear
Hourly data recorded from KBIE, located miles away from Barneston, Nebraska







STORIES FROM OUR PARTNERS